Weather History for K12N - February, 2014

Change the Weather History Date:

Wednesday, February 5, 2014

  Actual Average (KFWN) Record (KFWN)
Temperature  
Mean Temperature 26 °F -  
Max Temperature 28 °F 34 °F 66 °F (1991)
Min Temperature 23 °F 13 °F -14 °F (1985)
Degree Days  
Heating Degree Days 40    
Moisture  
Dew Point 24 °F    
Average Humidity 91    
Maximum Humidity 96    
Minimum Humidity 72    
Precipitation  
Precipitation 1.30 in - - ()
Sea Level Pressure  
Sea Level Pressure 29.91 in    
Wind  
Wind Speed 4 mph (NNE)    
Max Wind Speed 12 mph    
Max Gust Speed 18 mph    
Averages and records for this station are not official NWS values.
T = Trace of Precipitation, MM = Missing Value Source: NWS Daily Summary

Daily Weather History Graph

Daily Weather History Graph

Search for Another Location

Airport or City:

Trip Planner

Search our weather history database for the weather conditions in past years. The results will help you decide how hot, cold, wet, or windy it might be!

Date:

Astronomy

Feb. 05, 2014 Rise Set
Actual Time 7:05 AM EST 5:21 PM EST
Civil Twilight 6:36 AM EST 5:49 PM EST
Nautical Twilight 6:03 AM EST 6:22 PM EST
Astronomical Twilight 5:31 AM EST 6:54 PM EST
Moon 10:15 AM EST (2/5) No Moon Set
Length of Visible Light 11h 13m
Length of Day
10h 15m
Waxing Crescent, 39% of the Moon is Illuminated
Feb 5
Waxing Crescent
Feb 6
First Quarter
Feb 14
Full
Feb 22
Last Quarter
Mar 1
New

Hourly Weather History & Observations

Time (EST) Temp. Windchill Dew Point Humidity Pressure Visibility Wind Dir Wind Speed Gust Speed Precip Events Conditions
12:54 AM 26.1 °F - 21.9 °F 84% 30.27 in - Calm Calm - 0.01 in   Unknown
1:54 AM 25.0 °F 19.3 °F 23.0 °F 92% 30.20 in - NNE 4.6 mph - 0.09 in   Unknown
2:54 AM 24.1 °F 18.2 °F 23.0 °F 96% 30.19 in - NE 4.6 mph - 0.15 in   Unknown
3:54 AM 24.1 °F 18.2 °F 21.9 °F 91% 30.08 in - Variable 4.6 mph - 0.20 in   Unknown
4:54 AM 24.1 °F 14.4 °F 21.9 °F 91% 30.11 in - NNE 9.2 mph - 0.19 in   Unknown
5:54 AM 23.0 °F 14.7 °F 21.0 °F 92% 30.09 in - NE 6.9 mph - 0.15 in   Unknown
6:54 AM 24.1 °F 18.2 °F 21.9 °F 91% 30.03 in - Variable 4.6 mph - 0.14 in   Unknown
7:54 AM 24.1 °F 18.2 °F 23.0 °F 96% 29.96 in - Variable 4.6 mph - 0.13 in   Unknown
8:54 AM 27.0 °F 21.6 °F 26.1 °F 96% 29.91 in - Variable 4.6 mph - 0.15 in   Unknown
9:54 AM 28.0 °F 22.8 °F 26.1 °F 92% 29.83 in - Variable 4.6 mph - 0.01 in   Unknown
10:54 AM 27.0 °F 20.5 °F 25.0 °F 92% 29.79 in - Variable 5.8 mph - N/A   Unknown
11:54 AM 27.0 °F 21.6 °F 25.0 °F 92% 29.73 in - North 4.6 mph - 0.04 in   Unknown
12:54 PM 28.0 °F 20.0 °F 26.1 °F 92% 29.70 in - NE 8.1 mph - 0.02 in   Unknown
1:54 PM 28.0 °F 24.2 °F 26.1 °F 92% 29.70 in - Variable 3.5 mph - 0.01 in   Unknown
2:54 PM 28.0 °F 24.2 °F 27.0 °F 96% 29.69 in - NE 3.5 mph - 0.01 in   Unknown
3:54 PM 28.0 °F 24.2 °F 27.0 °F 96% 29.70 in - North 3.5 mph - N/A   Unknown
4:54 PM 28.0 °F - 27.0 °F 96% 29.71 in - Calm Calm - N/A   Unknown
5:54 PM 28.0 °F - 27.0 °F 96% 29.74 in - Calm Calm - N/A   Unknown
6:54 PM 28.0 °F - 27.0 °F 96% 29.78 in - Calm Calm - N/A   Unknown
7:54 PM 28.0 °F - 27.0 °F 96% 29.81 in - Calm Calm - N/A   Unknown
8:54 PM 28.0 °F - 27.0 °F 96% 29.85 in - Calm Calm - N/A   Unknown
9:54 PM 28.9 °F 19.2 °F 21.0 °F 72% 29.92 in - NNW 11.5 mph 18.4 mph N/A   Unknown
10:54 PM 27.0 °F 21.6 °F 21.0 °F 78% 29.97 in - North 4.6 mph - N/A   Unknown
11:54 PM 26.1 °F 17.6 °F 19.9 °F 78% 30.02 in - North 8.1 mph - N/A   Unknown